[[{"header":{"parameterUnit":"m.s-1","parameterCategory":1,"la1":30.2991,"la2":30.254,"lo1":-89.0895,"lo2":-89.0444,"dy":0.0017,"dx":0.0017,"nx":28,"ny":28,"refTime":"2025-03-11T09:00:00:Z","depth":0,"parameterNumber":2,"parameterNumberName":"U-component_of_WINDS"},"data":[0,0,0,0,0,0,0,0,0,0,0,0,0,0,0,0,0,0,0,0,0,0,0,0,0,0,0,0,0,0,0,0,0,0,0,0,0,0,0,0,0,0,0,0,0,0,0,0,0,0,0,0,0,0,0,0,0,0,2.2422,2.2423,0,2.2461,2.2461,2.2462,2.2477,2.2476,2.2476,2.2476,2.2517,2.2518,2.2519,0,0,0,0,0,0,0,0,0,0,0,0,0,2.2365,2.2366,2.2422,2.2423,2.2423,2.2461,2.2461,2.2462,2.2477,2.2476,2.2476,2.2476,2.2517,2.2518,2.2519,0,0,0,0,0,0,0,0,0,0,0,0,0,2.2395,2.2366,2.2422,2.2435,2.2437,2.246,2.2461,2.2462,2.2477,2.2476,2.2476,2.2476,2.2516,2.2518,2.252,2.2534,0,0,2.2525,2.2526,0,0,0,0,0,0,0,0,2.2393,2.2397,2.2433,2.2434,2.2436,2.2464,2.2456,2.2486,2.2477,2.2462,2.2476,2.2476,2.2499,2.2503,2.251,2.2535,2.2537,2.2525,2.2526,2.2527,2.2527,0,0,0,0,0,0,0,2.2391,2.2396,2.2438,2.2433,2.2435,2.244,2.2444,2.2462,2.2481,2.2463,2.2464,2.2468,2.25,2.2508,2.2511,2.2538,2.2525,2.2527,2.2528,2.2528,2.2578,2.2579,0,0,0,0,0,0,2.2387,2.2394,2.2436,2.2439,2.2414,2.2441,2.2446,2.2455,2.2481,2.2485,2.2468,2.2469,2.2505,2.2509,2.2513,2.2532,2.2527,2.2529,2.253,2.2578,2.2578,2.2579,0,0,0,0,0,0,2.2385,2.239,2.2435,2.2417,2.2423,2.2442,2.2453,2.2456,2.2464,2.2485,2.2489,2.2473,2.2505,2.251,2.2529,2.2533,2.2529,2.2531,2.2578,2.2578,2.2579,2.2569,0,0,0,0,0,0,2.2384,2.239,2.2395,2.2417,2.2424,2.2449,2.2453,2.2457,2.2467,2.2468,2.249,2.2494,2.2506,2.2526,2.253,2.2536,2.2532,2.2577,2.2578,2.2578,2.2569,2.257,2.257,0,0,0,0,0,2.2382,2.2391,2.2395,2.24,2.243,2.2449,2.2454,2.2467,2.2467,2.2473,2.2486,2.2493,2.2532,2.2528,2.2533,2.2539,2.2577,2.2578,2.2578,2.2569,2.257,2.257,0,0,0,0,0,0,2.2369,2.2394,2.2399,2.2415,2.243,2.2452,2.2459,2.2466,2.2482,2.2482,2.2498,2.2503,2.252,2.2531,2.2526,2.2555,2.2555,2.2557,2.2547,2.2547,2.2547,2.2544,2.2534,0,0,0,0,0,2.2368,2.2381,2.2402,2.2415,2.2422,2.2439,2.2448,2.2457,2.2474,2.248,2.2495,2.2512,2.2528,2.2538,2.2554,2.2571,2.2577,2.2578,2.2578,2.2578,2.2579,2.2591,2.2592,2.2581,2.2581,2.2581,0,0,2.2366,2.2381,2.2389,2.2412,2.2425,2.2439,2.2444,2.2459,2.247,2.2483,2.2501,2.2513,2.2532,2.255,2.2559,2.256,2.2584,2.2579,2.2579,2.258,2.2592,2.2593,2.2594,2.2581,2.2581,2.2581,0,0,2.237,2.2382,2.2395,2.2407,2.2427,2.2438,2.2441,2.2463,2.2471,2.249,2.25,2.2514,2.254,2.2554,2.2565,2.2576,2.2583,2.258,2.2581,2.2592,2.2593,2.2594,2.2598,2.26,2.2582,2.2582,2.2582,0,2.2365,2.2386,2.24,2.2414,2.2425,2.2437,2.245,2.2462,2.2486,2.2493,2.2494,2.2529,2.2543,2.2565,2.2568,2.2576,2.2581,2.2578,2.2591,2.2592,2.2593,2.2598,2.26,2.2581,2.2581,2.2581,2.2581,0,2.238,2.2395,2.2403,2.2425,2.2437,2.245,2.2467,2.2477,2.2486,2.2498,2.2517,2.2534,2.2555,2.2561,2.2569,2.2584,2.2585,2.2588,2.2589,2.2594,2.2599,2.2601,2.2581,2.2581,2.2581,2.2581,0,0,2.2376,2.2407,2.241,2.2421,2.2444,2.2456,2.2471,2.249,2.2499,2.2515,2.2529,2.2552,2.2556,2.2568,2.2578,2.2587,2.2596,2.259,2.2591,2.2591,2.2616,2.2614,2.2615,2.2601,2.2601,2.2602,2.2615,0,2.2384,2.241,2.2424,2.2445,2.2459,2.2472,2.2485,2.2501,2.2513,2.2527,2.2541,2.2557,2.2561,2.2568,2.2578,2.2593,2.2602,2.2592,2.2615,2.2615,2.261,2.2618,2.2615,2.2626,2.2617,2.2617,2.2617,0,2.2396,2.2412,2.2435,2.2457,2.2464,2.2475,2.2495,2.2508,2.2527,2.2536,2.255,2.256,2.2577,2.2577,2.2601,2.2595,2.2605,2.2614,2.2615,2.2617,2.2617,2.2621,2.263,2.2632,2.262,2.262,2.262,0,2.2392,2.2419,2.2437,2.2446,2.2472,2.248,2.2492,2.251,2.2522,2.2539,2.2547,2.2566,2.2577,2.2592,2.2608,2.2606,2.2631,2.2632,2.264,2.2639,2.2644,2.2644,2.2655,2.265,2.265,2.265,2.265,0,2.2399,2.2412,2.2436,2.2446,2.2462,2.2478,2.2494,2.2506,2.2523,2.2537,2.2549,2.2562,2.2582,2.2598,2.261,2.2629,2.2634,2.2642,2.2645,2.2641,2.264,2.2648,2.2648,2.265,2.265,2.265,2.265,0,2.2397,2.2413,2.2433,2.2456,2.2463,2.2474,2.2494,2.2506,2.2519,2.2537,2.2542,2.2562,2.2582,2.2599,2.2624,2.2633,2.2653,2.2656,2.2646,2.2648,2.2655,2.2654,2.2672,2.2675,2.2667,2.2667,2.2667,0,2.24,2.2411,2.2436,2.2447,2.2458,2.2474,2.2486,2.2503,2.2515,2.2538,2.2547,2.2567,2.2584,2.2615,2.2633,2.2653,2.2657,2.2662,2.2661,2.2657,2.2658,2.2658,2.2659,2.2662,2.2662,2.2662,2.2662,0,2.2406,2.2413,2.243,2.2449,2.2463,2.2479,2.2496,2.2504,2.2524,2.2537,2.2557,2.257,2.2597,2.2617,2.2639,2.2652,2.2661,2.2663,2.2666,2.2662,2.2656,2.266,2.2647,2.2662,2.2662,2.2662,2.2662,2.2662,2.2407,2.2418,2.2437,2.2456,2.247,2.2486,2.2498,2.2513,2.2529,2.2552,2.2561,2.2582,2.2602,2.2633,2.2646,2.2663,2.2665,2.2669,2.267,2.2671,2.267,2.2653,2.2667,2.2667,2.2667,2.2667,2.2667,0,2.2413,2.2427,2.2444,2.2467,2.2481,2.2488,2.2507,2.2519,2.2537,2.2555,2.2572,2.2596,2.2616,2.2636,2.2658,2.2668,2.2672,2.2673,2.2672,2.2676,2.2667,2.2663,2.2669,2.2669,2.2669,2.2669,2.2669,2.2669,2.2418,2.2437,2.2447,2.2474,2.2488,2.2508,2.2518,2.2533,2.2548,2.2574,2.2591,2.2603,2.2622,2.2646,2.2665,2.267,2.2678,2.2678,2.2684,2.2676,2.2676,2.2676,2.2672,2.2679,2.2679,2.2691,2.2691,2.2691]},{"header":{"parameterUnit":"m.s-1","parameterCategory":1,"la1":30.2991,"la2":30.254,"lo1":-89.0895,"lo2":-89.0444,"dy":0.0017,"dx":0.0017,"nx":28,"ny":28,"refTime":"2025-03-11T09:00:00:Z","depth":0,"parameterNumber":3,"parameterNumberName":"V-component_of_WINDS"},"data":[0,0,0,0,0,0,0,0,0,0,0,0,0,0,0,0,0,0,0,0,0,0,0,0,0,0,0,0,0,0,0,0,0,0,0,0,0,0,0,0,0,0,0,0,0,0,0,0,0,0,0,0,0,0,0,0,0,0,1.3981,1.3981,0,1.3979,1.3979,1.3979,1.398,1.398,1.398,1.398,1.3977,1.3977,1.3976,0,0,0,0,0,0,0,0,0,0,0,0,0,1.3981,1.3981,1.3981,1.3981,1.3981,1.3979,1.3979,1.3979,1.398,1.398,1.398,1.398,1.3977,1.3977,1.3976,0,0,0,0,0,0,0,0,0,0,0,0,0,1.3981,1.3981,1.3981,1.3981,1.3981,1.3979,1.3979,1.3979,1.398,1.398,1.398,1.398,1.3977,1.3977,1.3976,1.3973,0,0,1.3976,1.3976,0,0,0,0,0,0,0,0,1.3981,1.3981,1.3981,1.3981,1.3981,1.398,1.3978,1.3977,1.398,1.3981,1.398,1.3981,1.3978,1.3977,1.3977,1.3973,1.3973,1.3976,1.3975,1.3975,1.3975,0,0,0,0,0,0,0,1.3981,1.3981,1.398,1.3981,1.3981,1.398,1.398,1.3978,1.3979,1.3981,1.3981,1.3981,1.3978,1.3977,1.3977,1.3973,1.3976,1.3975,1.3975,1.3975,1.3964,1.3963,0,0,0,0,0,0,1.3981,1.3981,1.398,1.398,1.3981,1.398,1.398,1.398,1.3979,1.3978,1.398,1.3981,1.3977,1.3977,1.3977,1.3971,1.3975,1.3975,1.3975,1.3964,1.3964,1.3963,0,0,0,0,0,0,1.3981,1.3981,1.398,1.398,1.398,1.398,1.398,1.398,1.398,1.3979,1.3978,1.398,1.3977,1.3977,1.3974,1.3971,1.3975,1.3975,1.3964,1.3964,1.3963,1.3961,0,0,0,0,0,0,1.3981,1.3981,1.3981,1.398,1.398,1.3979,1.398,1.398,1.398,1.398,1.3978,1.3978,1.3977,1.3974,1.3973,1.3971,1.3975,1.3964,1.3964,1.3964,1.3962,1.3961,1.396,0,0,0,0,0,1.3981,1.3981,1.3981,1.3981,1.398,1.3978,1.3978,1.3978,1.3979,1.3978,1.3977,1.3978,1.3971,1.3974,1.3973,1.397,1.3964,1.3964,1.3964,1.3962,1.3961,1.396,0,0,0,0,0,0,1.3981,1.3981,1.3981,1.3981,1.3979,1.3979,1.3978,1.3978,1.3976,1.3976,1.3976,1.3975,1.3972,1.3971,1.3973,1.3966,1.3968,1.3967,1.3967,1.3966,1.3965,1.3965,1.3974,0,0,0,0,0,1.3981,1.398,1.398,1.3979,1.3978,1.3978,1.3977,1.3977,1.3976,1.3976,1.3974,1.3972,1.3969,1.3968,1.3965,1.3961,1.396,1.3959,1.3958,1.3958,1.3957,1.3953,1.3952,1.3962,1.3962,1.3962,0,0,1.398,1.398,1.398,1.3979,1.3978,1.3976,1.3978,1.3976,1.3974,1.3975,1.3972,1.397,1.3968,1.3964,1.3962,1.3963,1.3954,1.3957,1.3957,1.3957,1.3952,1.3951,1.395,1.3962,1.3962,1.3962,0,0,1.3979,1.3979,1.3978,1.3977,1.3975,1.3975,1.3974,1.3973,1.3972,1.3969,1.3968,1.3965,1.3962,1.3959,1.3957,1.3952,1.3951,1.3951,1.3948,1.3943,1.3942,1.3942,1.3938,1.3937,1.395,1.395,1.395,0,1.3978,1.3976,1.3977,1.3975,1.3973,1.3974,1.3971,1.397,1.3968,1.3966,1.3967,1.396,1.3959,1.3953,1.3951,1.3951,1.3948,1.3951,1.3943,1.3942,1.3941,1.3938,1.3936,1.395,1.395,1.395,1.395,0,1.3975,1.3973,1.3972,1.397,1.3968,1.3966,1.3965,1.3963,1.3962,1.3961,1.3956,1.3954,1.395,1.3949,1.3948,1.3942,1.3942,1.3943,1.3945,1.394,1.3937,1.3935,1.395,1.395,1.395,1.395,0,0,1.3974,1.3971,1.397,1.3968,1.3966,1.3964,1.396,1.3957,1.3954,1.3952,1.3948,1.3943,1.3944,1.3941,1.394,1.3937,1.393,1.3938,1.3937,1.3935,1.392,1.3919,1.3917,1.393,1.3929,1.3929,1.392,0,1.3971,1.3967,1.3966,1.3961,1.3958,1.3957,1.3954,1.3951,1.3949,1.3945,1.3943,1.3939,1.394,1.3939,1.3935,1.3932,1.3927,1.3932,1.3924,1.3924,1.3924,1.3916,1.3915,1.3906,1.3919,1.3918,1.3918,0,1.3968,1.3965,1.396,1.3956,1.3955,1.3952,1.3947,1.3944,1.394,1.3939,1.3935,1.3934,1.3928,1.3931,1.3922,1.3925,1.3922,1.3919,1.3919,1.3918,1.392,1.3913,1.3904,1.3902,1.3916,1.3917,1.3917,0,1.3966,1.3961,1.3957,1.3955,1.3951,1.3948,1.3946,1.3942,1.3939,1.3934,1.3932,1.3927,1.3924,1.3919,1.3915,1.3918,1.3906,1.3908,1.3903,1.3903,1.3901,1.3901,1.3889,1.39,1.39,1.39,1.39,0,1.3963,1.3959,1.3956,1.3953,1.3948,1.3946,1.3941,1.3939,1.3934,1.393,1.3929,1.3924,1.392,1.3915,1.3912,1.3904,1.3903,1.39,1.3899,1.39,1.39,1.3897,1.3897,1.3899,1.39,1.39,1.39,0,1.396,1.3958,1.3953,1.3948,1.3947,1.3943,1.3939,1.3935,1.3932,1.3926,1.3924,1.392,1.3913,1.3909,1.39,1.3898,1.3889,1.3889,1.389,1.389,1.3884,1.3884,1.387,1.3867,1.388,1.388,1.388,0,1.3958,1.3955,1.395,1.3947,1.3944,1.394,1.3936,1.3933,1.393,1.3923,1.392,1.3913,1.3907,1.3895,1.389,1.3883,1.3882,1.3877,1.3881,1.388,1.388,1.388,1.3878,1.3876,1.3876,1.3876,1.3876,0,1.3954,1.3952,1.3948,1.3943,1.3938,1.3934,1.3929,1.3927,1.3923,1.3918,1.3911,1.3906,1.3897,1.3889,1.3881,1.3877,1.3875,1.3875,1.3873,1.3873,1.3874,1.3872,1.3887,1.3875,1.3875,1.3875,1.3876,1.3876,1.3951,1.3947,1.3942,1.3937,1.3933,1.3928,1.3923,1.3919,1.3914,1.3906,1.3904,1.3896,1.3889,1.3878,1.3873,1.3865,1.3866,1.3864,1.3863,1.3862,1.3861,1.3875,1.3864,1.3864,1.3864,1.3864,1.3864,0,1.3945,1.3941,1.3936,1.3929,1.3924,1.3924,1.3918,1.3913,1.3906,1.39,1.3894,1.3884,1.3876,1.387,1.3861,1.3855,1.3854,1.3853,1.3853,1.3852,1.3862,1.3864,1.3854,1.3854,1.3854,1.3854,1.3854,1.3854,1.3942,1.3935,1.3932,1.3923,1.3919,1.3911,1.3907,1.3902,1.3897,1.3886,1.3879,1.3875,1.3868,1.3858,1.385,1.3848,1.3844,1.3843,1.384,1.385,1.3851,1.3852,1.3854,1.3842,1.3842,1.383,1.383,1.383]}]]